Stations météo

réclame
Mon MeteoGroup
Shawbury, Grande-Bretagne (3414): Température de l'air & dewpoint: 14.08.2019 04:00:00 - 20.08.2019 04:00:00 (BST)Shawbury, Grande-Bretagne (3414): Température de l'air -20cm & Température de l'air -100cm: 14.08.2019 04:00:00 - 20.08.2019 04:00:00 (BST)Shawbury, Grande-Bretagne (3414): Vitesse du vent & gusts: 14.08.2019 04:00:00 - 20.08.2019 04:00:00 (BST)Shawbury, Grande-Bretagne (3414): Direction du vent: 14.08.2019 04:00:00 - 20.08.2019 04:00:00 (BST)Shawbury, Grande-Bretagne (3414): reduced air pressure: 14.08.2019 04:00:00 - 20.08.2019 04:00:00 (BST)Shawbury, Grande-Bretagne (3414): visibility: 14.08.2019 04:00:00 - 20.08.2019 04:00:00 (BST)Shawbury, Grande-Bretagne (3414): Ensoleillement: 14.08.2019 04:00:00 - 20.08.2019 04:00:00 (BST)Shawbury, Grande-Bretagne (3414): Quantités de précipitations: 14.08.2019 04:00:00 - 20.08.2019 04:00:00 (BST)
Date & Time tt [°C] td [°C] tt -20cm [°C] tt -100cm [°C] ff [km/h] ff [knt] fx [km/h] fx [knt] dd ppp [hPa] vv [km] sd [min] rr [mm]
20.08.2019 04:00:00 10,7 10,1 - - 11 6 - - SW 1018,0 10 0 -
20.08.2019 03:00:00 11,0 9,9 - - 8 4 - - WSW 1017,7 10 0 0,0
20.08.2019 02:00:00 11,3 9,9 - - 9 5 - - W 1017,5 23 0 0,0
20.08.2019 01:00:00 11,9 10,4 - - 13 7 - - SW 1017,4 27 - 0,0
20.08.2019 00:00:00 12,6 11,3 - - 15 8 - - SW 1017,1 24 0 0,4
19.08.2019 23:00:00 13,2 10,1 - - 21 11 - - SW 1016,8 10 0 0,0
19.08.2019 22:00:00 13,7 9,8 - - 16 9 - - SW 1016,3 29 0 0,0
19.08.2019 21:00:00 13,8 9,4 - - 16 9 - - SW 1015,9 27 0 0,0
19.08.2019 20:00:00 15,2 9,1 - - 22 12 - - WSW 1015,3 27 42 0,0
19.08.2019 19:00:00 16,4 8,6 - - 26 14 - - WSW 1014,8 29 60 0,0
19.08.2019 18:00:00 17,5 8,8 - - 24 13 - - WSW 1014,2 10 48 0,0
19.08.2019 17:00:00 17,9 8,8 - - 28 15 48 26 WSW 1013,9 40 60 0,0
19.08.2019 16:00:00 18,4 8,9 - - 34 18 50 27 WSW 1013,6 10 54 0,0
19.08.2019 15:00:00 18,0 7,6 - - 31 17 54 29 W 1013,2 10 54 0,0
19.08.2019 14:00:00 17,9 10,0 - - 29 16 - - WSW 1012,7 10 36 0,0
19.08.2019 13:00:00 17,5 11,9 - - 28 15 - - SW 1012,1 10 18 0,2
19.08.2019 12:00:00 14,6 12,3 - - 15 8 - - WSW 1012,0 10 6 0,4
19.08.2019 11:00:00 16,8 11,6 - - 21 11 - - WSW 1011,5 10 36 0,0
19.08.2019 10:00:00 15,5 10,5 16,0 15,7 16 9 - - WSW 1011,0 10 60 0,0
19.08.2019 09:00:00 15,2 11,4 - - 18 10 - - WSW 1010,5 10 60 0,0
19.08.2019 08:00:00 13,8 11,8 - - 16 9 - - WSW 1010,0 10 30 0,0
19.08.2019 07:00:00 13,2 12,2 - - 9 5 - - SW 1009,5 10 0 0,0
19.08.2019 06:00:00 13,2 12,3 - - 9 5 - - WSW 1008,7 10 0 0,0
19.08.2019 05:00:00 13,3 12,1 - - 11 6 - - SW 1007,9 10 0 0,0
19.08.2019 04:00:00 13,2 11,7 - - 11 6 - - WSW 1007,3 10 0 0,0
19.08.2019 03:00:00 13,0 11,3 - - 9 5 - - SW 1007,2 21 0 0,0
19.08.2019 02:00:00 13,3 11,6 - - 13 7 - - SW 1007,0 10 0 0,0
19.08.2019 01:00:00 13,1 11,3 - - 15 8 - - SW 1006,6 19 - 0,0
19.08.2019 00:00:00 13,7 11,2 - - 18 10 - - SW 1006,2 10 0 0,0
18.08.2019 23:00:00 13,8 10,6 - - 16 9 - - SW 1005,8 20 0 0,0
18.08.2019 22:00:00 14,4 10,6 - - 18 10 - - SW 1005,2 22 0 0,0
18.08.2019 21:00:00 14,6 11,1 - - 15 8 46 25 SW 1004,8 23 0 0,0
18.08.2019 20:00:00 15,4 10,2 - - 26 14 - - WSW 1004,4 11 0 0,0
18.08.2019 19:00:00 16,5 8,8 - - 29 16 54 29 WSW 1004,1 10 0 0,0
18.08.2019 18:00:00 17,3 7,8 - - 37 20 57 31 WSW 1003,7 26 6 0,0
18.08.2019 17:00:00 18,4 7,8 - - 37 20 55 30 WSW 1003,3 27 60 0,0
18.08.2019 16:00:00 18,8 8,1 - - 37 20 55 30 WSW 1003,0 30 42 0,0
18.08.2019 15:00:00 18,0 9,4 - - 41 22 55 30 WSW 1002,7 10 54 0,0
18.08.2019 14:00:00 18,5 9,3 - - 39 21 55 30 WSW 1002,3 24 48 0,0
18.08.2019 13:00:00 18,7 9,3 - - 34 18 52 28 WSW 1001,8 10 42 0,0
18.08.2019 12:00:00 17,4 9,8 - - 34 18 48 26 WSW 1001,6 23 36 0,0
18.08.2019 11:00:00 16,5 10,3 - - 24 13 48 26 SW 1001,4 24 54 0,0
18.08.2019 10:00:00 15,7 10,7 16,2 15,9 26 14 - - SW 1001,0 10 30 0,0
18.08.2019 09:00:00 14,4 11,1 - - 16 9 - - SW 1000,9 17 12 0,0
18.08.2019 08:00:00 13,2 10,5 - - 18 10 - - S 1000,5 20 24 0,0
18.08.2019 07:00:00 11,5 9,9 - - 8 4 - - S 1000,6 10 0 0,0
18.08.2019 06:00:00 11,5 9,6 - - 11 6 - - SSE 1000,5 21 0 0,0
18.08.2019 05:00:00 12,1 9,8 - - 13 7 - - S 1001,0 10 0 0,0
18.08.2019 04:00:00 12,6 10,3 - - 9 5 - - S 1001,1 20 0 0,0
18.08.2019 03:00:00 11,7 10,0 - - 9 5 - - E 1001,5 19 0 0,0
18.08.2019 02:00:00 13,0 10,2 - - 4 2 - - SSE 1001,7 22 0 0,0
18.08.2019 01:00:00 13,4 10,3 - - 16 9 - - SSW 1002,2 21 - 0,0
18.08.2019 00:00:00 13,6 10,0 - - 13 7 - - S 1002,1 10 0 0,0
17.08.2019 23:00:00 14,2 9,8 - - 13 7 - - S 1002,5 10 0 0,0
17.08.2019 22:00:00 14,7 9,8 - - 15 8 - - SSW 1002,8 10 0 0,0
17.08.2019 21:00:00 15,6 9,2 - - 16 9 - - SW 1002,5 27 0 0,0
17.08.2019 20:00:00 16,8 9,7 - - 18 10 - - SW 1002,6 26 0 0,0
17.08.2019 19:00:00 17,5 9,5 - - 24 13 - - WSW 1002,3 28 12 0,0
17.08.2019 18:00:00 18,4 10,8 - - 22 12 - - SW 1002,4 24 42 0,0
17.08.2019 17:00:00 18,2 11,8 - - 24 13 46 25 SW 1002,8 10 6 0,0
17.08.2019 16:00:00 18,7 7,6 - - 29 16 57 31 WSW 1002,6 30 54 0,0
17.08.2019 15:00:00 19,2 8,1 - - 31 17 50 27 WSW 1002,5 10 54 0,0
17.08.2019 14:00:00 19,0 9,1 - - 35 19 50 27 SW 1002,7 30 48 0,0
17.08.2019 13:00:00 18,0 9,1 - - 31 17 - - WSW 1002,7 26 30 0,0
17.08.2019 12:00:00 18,2 9,6 - - 28 15 - - WSW 1002,5 26 60 0,0
17.08.2019 11:00:00 17,8 11,0 - - 29 16 - - SW 1002,3 24 60 0,0
17.08.2019 10:00:00 17,2 11,5 16,2 15,9 29 16 - - WSW 1001,7 26 60 0,0
17.08.2019 09:00:00 16,4 13,2 - - 24 13 - - WSW 1001,0 10 54 0,0
17.08.2019 08:00:00 14,8 13,5 - - 13 7 - - SSW 1000,9 21 0 1,2
17.08.2019 07:00:00 14,8 12,2 - - 15 8 - - S 1000,1 6 0 0,0
17.08.2019 06:00:00 14,7 11,9 - - 16 9 - - S 999,9 20 0 0,0
17.08.2019 05:00:00 14,4 11,7 - - 16 9 - - S 1000,1 21 0 0,0
17.08.2019 04:00:00 14,9 11,7 - - 16 9 - - SSW 1000,3 20 0 0,0
17.08.2019 03:00:00 15,0 11,7 - - 21 11 - - SSW 1000,2 23 0 0,0
17.08.2019 02:00:00 14,7 11,9 - - 18 10 - - SSW 1000,2 23 0 0,0
17.08.2019 01:00:00 15,1 12,1 - - 18 10 - - SSW 1000,1 23 - 0,0
17.08.2019 00:00:00 15,0 12,0 - - 18 10 - - SW 1000,2 27 0 0,0
16.08.2019 23:00:00 16,0 14,6 - - 18 10 - - WSW 999,6 35 0 1,2
16.08.2019 22:00:00 16,8 15,9 - - 11 6 - - SSE 999,0 10 0 0,2
16.08.2019 21:00:00 17,1 16,2 - - 24 13 - - S 999,6 35 0 1,6
16.08.2019 20:00:00 16,7 16,0 - - 16 9 - - S 999,5 3,9 0 1,8
16.08.2019 19:00:00 16,9 15,6 - - 21 11 - - S 999,9 19 0 0,2
16.08.2019 18:00:00 16,5 15,5 - - 21 11 - - S 1000,5 8 0 1,4
16.08.2019 17:00:00 16,8 15,5 - - 24 13 - - S 1001,5 8 0 0,6
16.08.2019 16:00:00 16,7 15,4 - - 22 12 - - S 1002,4 15 0 0,8
16.08.2019 15:00:00 16,4 14,8 - - 26 14 - - S 1003,5 10 0 1,4
16.08.2019 14:00:00 16,4 13,8 - - 31 17 - - S 1004,1 10 0 0,0
16.08.2019 13:00:00 17,5 13,8 - - 26 14 - - S 1004,9 25 0 0,0
16.08.2019 12:00:00 16,1 13,2 - - 24 13 - - S 1006,0 10 0 0,0
16.08.2019 11:00:00 15,5 13,2 - - 22 12 - - S 1007,0 10 0 0,2
16.08.2019 10:00:00 15,1 12,7 16,5 16,0 26 14 - - S 1007,9 10 0 0,2
16.08.2019 09:00:00 14,9 12,9 - - 22 12 - - SSE 1008,4 25 0 0,2
16.08.2019 08:00:00 15,0 12,8 - - 18 10 - - S 1009,8 10 0 0,0
16.08.2019 07:00:00 14,7 12,8 - - 21 11 - - S 1010,5 10 0 0,0
16.08.2019 06:00:00 14,5 12,6 - - 21 11 - - S 1011,2 10 0 0,0
16.08.2019 05:00:00 14,0 12,2 - - 16 9 - - SSE 1012,2 25 0 0,0
16.08.2019 04:00:00 13,6 11,7 - - 11 6 - - SE 1013,0 10 0 0,0
16.08.2019 03:00:00 13,6 11,8 - - 11 6 - - SE 1013,4 26 0 0,0
16.08.2019 02:00:00 13,8 11,6 - - 11 6 - - S 1014,2 30 0 0,0
16.08.2019 01:00:00 13,8 11,1 - - 9 5 - - SSE 1014,7 30 - 0,0
16.08.2019 00:00:00 14,3 11,3 - - 8 4 - - S 1015,3 10 0 0,0
15.08.2019 23:00:00 14,6 11,5 - - 4 2 - - S 1015,8 10 0 0,0
15.08.2019 22:00:00 12,5 9,3 - - 8 4 - - SW 1016,0 24 0 0,0
15.08.2019 21:00:00 14,1 10,5 - - 13 7 - - WSW 1015,6 27 6 0,0
15.08.2019 20:00:00 16,7 10,2 - - 11 6 - - WSW 1015,3 26 60 0,0
15.08.2019 19:00:00 17,6 10,3 - - 18 10 - - W 1015,2 29 54 0,0
15.08.2019 18:00:00 17,9 9,7 - - 26 14 - - W 1015,0 29 30 0,0
15.08.2019 17:00:00 17,6 8,1 - - 22 12 - - W 1014,7 10 6 0,0
15.08.2019 16:00:00 18,2 8,9 - - 28 15 - - W 1013,9 40 42 0,0
15.08.2019 15:00:00 18,0 9,1 - - 24 13 - - W 1013,5 40 42 0,0
15.08.2019 14:00:00 18,5 10,1 - - 18 10 - - NW 1013,0 10 30 0,0
15.08.2019 13:00:00 17,7 9,9 - - 16 9 - - WNW 1012,5 10 12 0,0
15.08.2019 12:00:00 17,7 9,6 - - 24 13 46 25 WNW 1011,9 40 24 0,0
15.08.2019 11:00:00 16,9 9,6 - - 26 14 48 26 W 1011,1 40 36 0,0
15.08.2019 10:00:00 16,9 11,2 16,7 16,0 22 12 - - W 1010,4 10 36 0,0
15.08.2019 09:00:00 15,2 12,1 - - 18 10 - - W 1009,7 10 0 0,0
15.08.2019 08:00:00 15,1 11,4 - - 21 11 - - W 1008,7 10 6 0,0
15.08.2019 07:00:00 14,5 11,7 - - 5 3 - - W 1007,9 10 0 0,0
15.08.2019 06:00:00 14,5 12,8 - - 21 11 - - WSW 1007,1 10 0 0,0
15.08.2019 05:00:00 15,1 13,1 - - 21 11 - - WSW 1006,2 10 0 0,0
15.08.2019 04:00:00 15,3 12,9 - - 22 12 - - WSW 1006,1 25 0 0,0
15.08.2019 03:00:00 15,5 12,9 - - 24 13 - - SW 1005,9 30 0 0,0
15.08.2019 02:00:00 15,4 12,9 - - 22 12 - - WSW 1006,1 27 0 0,0
15.08.2019 01:00:00 15,4 13,2 - - 18 10 - - WSW 1006,5 25 - 0,0
15.08.2019 00:00:00 16,3 13,3 - - 16 9 - - W 1006,1 28 0 0,2
14.08.2019 23:00:00 17,1 15,3 - - 22 12 - - W 1005,5 10 0 0,0
14.08.2019 22:00:00 17,1 15,3 - - 9 5 - - SSW 1005,0 27 0 0,0
14.08.2019 21:00:00 17,5 15,3 - - 16 9 - - SW 1005,0 30 0 0,0
14.08.2019 20:00:00 17,8 15,3 - - 22 12 - - WSW 1004,9 10 0 0,0
14.08.2019 19:00:00 18,7 15,9 - - 18 10 - - WSW 1004,7 29 0 0,0
14.08.2019 18:00:00 18,9 16,2 - - 21 11 - - W 1004,8 10 6 0,0
14.08.2019 17:00:00 19,2 17,0 - - 16 9 - - WSW 1005,0 10 0 0,0
14.08.2019 16:00:00 18,1 17,6 - - 11 6 - - SSE 1005,4 8 0 0,0
14.08.2019 15:00:00 15,9 15,6 - - 13 7 - - ESE 1005,8 6 0 0,2
14.08.2019 14:00:00 15,0 14,6 - - 15 8 - - ESE 1006,8 5 0 0,6
14.08.2019 13:00:00 14,3 13,8 - - 13 7 - - ESE 1007,6 4,5 0 1,4
14.08.2019 12:00:00 14,1 13,4 - - 21 11 - - SSE 1008,2 5 0 5,4
14.08.2019 11:00:00 13,8 13,2 - - 16 9 - - SSE 1008,6 6 0 5,4
14.08.2019 10:00:00 14,4 13,1 16,7 16,0 18 10 - - SSE 1009,6 8 0 0,4
14.08.2019 09:00:00 14,3 13,1 - - 16 9 - - SE 1010,0 9 0 0,2
14.08.2019 08:00:00 13,8 13,0 - - 9 5 - - SE 1011,1 6 0 0,2
14.08.2019 07:00:00 13,2 12,5 - - 11 6 - - SSE 1011,8 7 0 0,2
14.08.2019 06:00:00 13,0 12,3 - - 8 4 - - ESE 1012,4 9 0 0,2
14.08.2019 05:00:00 12,9 12,2 - - 8 4 - - SE 1013,1 10 0 0,0
14.08.2019 04:00:00 12,8 12,2 - - 8 4 - - SSE 1014,0 19 0 0,4

tt = Température de l'air
td = dewpoint
tt -20cm = Température de l'air -20cm
tt -100cm = Température de l'air -100cm
ff = Vitesse du vent
fx = gusts
dd = Direction du vent
ppp = reduced air pressure
vv = visibility
sd = Ensoleillement
rr = Quantités de précipitations

stations d'obs. à proximité